Avoca, PA

10:01 AM EDT on September 23, 2019 (GMT -0400)
Wilkes-Barre-Scranton International

Weather History for KAVP - July, 2019

Change the Weather History Date:

Saturday, July 20, 2019

  Actual Average Record
Temperature  
Mean Temperature 83 °F 72 °F  
Max Temperature 94 °F 82 °F 96 °F (1991)
Min Temperature 72 °F 61 °F 46 °F (1997)
Degree Days  
Heating Degree Days 0 0  
Month to date heating degree days 0 0  
Since 1 June heating degree days 32 54  
Since 1 July heating degree days 0 0  
Cooling Degree Days 18 7  
Month to date cooling degree days 236 135  
Year to date cooling degree days 401 289  
Since 1 June cooling degree days 351 252  
Growing Degree Days 32 (Base 50)    
Moisture  
Dew Point 71 °F    
Average Humidity 73    
Maximum Humidity 93    
Minimum Humidity 52    
Precipitation  
Precipitation 0.00 in 0.12 in 1.49 in (1982)
Month to date precipitation 4.58 2.37  
Year to date precipitation 29.28 20.20  
Sea Level Pressure  
Sea Level Pressure 29.87 in    
Wind  
Wind Speed 7 mph (SW)    
Max Wind Speed 17 mph    
Max Gust Speed 22 mph    
Visibility 10 miles    
Events      
T = Trace of Precipitation, MM = Missing Value Source: NWS Daily Summary

Daily Weather History Graph

Daily Weather History Graph

Search for Another Location

Airport or City:

Astronomy

Jul. 20, 2019 Rise Set
Actual Time 5:46 AM EDT 8:31 PM EDT
Civil Twilight 5:14 AM EDT 9:03 PM EDT
Nautical Twilight 4:33 AM EDT 9:44 PM EDT
Astronomical Twilight 3:47 AM EDT 10:30 PM EDT
Moon 10:55 PM EDT (7/20) 9:09 AM EDT (7/20)
Length of Visible Light 15h 49m
Length of Day
14h 44m
Waning Gibbous, 87% of the Moon is Illuminated
Jul 20
Waning Gibbous
Jul 24
Last Quarter
Jul 31
New
Aug 7
First Quarter
Aug 15
Full

Hourly Weather History & Observations

Time (EDT) Temp. Heat Index Dew Point Humidity Pressure Visibility Wind Dir Wind Speed Gust Speed Precip Events Conditions
12:54 AM 75.0 °F - 66.9 °F 76% 29.88 in 10.0 mi ESE 3.5 mph - N/A   Clear
1:54 AM 73.9 °F - 68.0 °F 82% 29.88 in 10.0 mi Calm Calm - N/A   Clear
2:54 AM 73.9 °F - 68.0 °F 82% 29.87 in 10.0 mi Calm Calm - N/A   Clear
3:54 AM 72.0 °F - 69.1 °F 91% 29.88 in 10.0 mi South 3.5 mph - N/A   Clear
4:54 AM 75.0 °F - 70.0 °F 84% 29.89 in 10.0 mi SW 3.5 mph - N/A   Scattered Clouds
5:54 AM 75.0 °F - 70.0 °F 84% 29.91 in 9.0 mi SW 4.6 mph - N/A   Mostly Cloudy
6:54 AM 75.9 °F - 70.0 °F 82% 29.90 in 9.0 mi SW 5.8 mph - N/A   Overcast
7:54 AM 79.0 °F - 70.0 °F 74% 29.90 in 10.0 mi SSW 9.2 mph - N/A   Clear
8:54 AM 81.0 °F 84.1 °F 69.1 °F 67% 29.89 in 10.0 mi SW 8.1 mph - N/A   Clear
9:54 AM 81.0 °F 84.4 °F 70.0 °F 69% 29.92 in 10.0 mi SSW 10.4 mph - N/A   Clear
10:54 AM 82.9 °F 87.0 °F 70.0 °F 65% 29.91 in 10.0 mi SW 9.2 mph - N/A   Scattered Clouds
11:54 AM 86.0 °F 91.5 °F 71.1 °F 61% 29.89 in 10.0 mi Variable 6.9 mph - N/A   Clear
12:54 PM 89.1 °F 97.0 °F 73.0 °F 59% 29.87 in 10.0 mi SSW 6.9 mph - N/A   Clear
1:54 PM 89.1 °F 97.0 °F 73.0 °F 59% 29.84 in 10.0 mi Variable 4.6 mph - N/A   Clear
2:54 PM 91.0 °F 101.6 °F 75.0 °F 59% 29.83 in 10.0 mi Variable 4.6 mph - N/A   Partly Cloudy
3:54 PM 91.9 °F 103.2 °F 75.0 °F 58% 29.83 in 10.0 mi SW 11.5 mph - N/A   Clear
4:54 PM 91.9 °F 99.5 °F 72.0 °F 52% 29.81 in 10.0 mi SW 11.5 mph - N/A   Clear
5:54 PM 93.0 °F 103.2 °F 73.9 °F 54% 29.82 in 10.0 mi West 10.4 mph - N/A   Partly Cloudy
6:54 PM 90.0 °F 100.2 °F 75.0 °F 61% 29.81 in 10.0 mi SW 11.5 mph - N/A   Clear
7:54 PM 89.1 °F 98.0 °F 73.9 °F 61% 29.83 in 10.0 mi SW 10.4 mph - N/A   Clear
8:54 PM 88.0 °F 96.5 °F 73.9 °F 63% 29.82 in 10.0 mi SW 5.8 mph - N/A   Mostly Cloudy
9:54 PM 84.9 °F 92.1 °F 73.9 °F 69% 29.84 in 10.0 mi SSW 4.6 mph - N/A   Clear
10:54 PM 82.9 °F 89.4 °F 73.9 °F 74% 29.84 in 9.0 mi WSW 3.5 mph - N/A   Partly Cloudy
11:54 PM 82.0 °F 87.9 °F 73.9 °F 76% 29.84 in 9.0 mi SW 5.8 mph - N/A   Clear